User: anonymous   Login
Location: Obersdorf
(47.4079°N, 10.2781°E)
Time: 10:40:03
(UTC+01:00)
Language:

CUTE 1.7 + AOD 2 - Orbit

View from above orbital plane
View from above orbital plane
View from above satellite
View from above satellite

Ground track
Ground track

The orbit data is extracted from the following two-line orbital elements,

1 32785U 08021C   21334.81035906  .00000673  00000-0  77264-4 0  9997
2 32785  97.6323 307.3954 0013117 165.5306 194.6290 14.88910212736998
Epoch (UTC): 30 November 2021 19:26:55
Eccentricity: 0.0013117
inclination: 97.6323°
perigee height: 592 km
apogee height: 610 km
right ascension of ascending node: 307.3954°
argument of perigee: 165.5306°
revolutions per day: 14.88910212
mean anomaly at epoch: 194.6290°
orbit number at epoch: 73699

The dashed part of the orbit path shows where the satellite is in the earth's shadow,  

DLR